COSMOS 2251 DEB, 33936

Orbit data source: Space-Track

COSMOS 2251 DEB, 33936 is space debris in LEO originally from a launch on Wed, 16 Jun 1993 UTC launched from the Plesetsk Missile And Space Complex (PKMTR). The debris from Iridium 33, an American commercial communications satellite, has been tracked extensively since its accidental collision with the defunct Russian satellite Cosmos 2251 in 2009. This event, occurring at high speed in low Earth orbit (LEO), generated thousands of pieces of space debris, significantly increasing the risk of further collisions. The Iridium 33 debris cloud has impacted space traffic management and orbital debris mitigation strategies, making it a subject of ongoing study in space situational awareness.

Loading next visibility...
Identifier
33936, 1993-036ER
Orbit
LEO
Country
Flag of CISCIS
Related business
Manufacturer
Unknown
Mission
Spacecraft
Bus & Motor
Unknown
Mass
Unknown
Launch date (UTC)
1993-06-16 (33 years ago)
Launch vehicle
Unknown
Launch site
Plesetsk Missile And Space Complex (PKMTR)
Object type
Payload
Rocket body
Debris
Shape & HBR
Unknown shape, 0.2 m
Radar Cross Section
Medium (>0.1 m² and <1 m²)

Expand to show TLE details & history
Last TLE update: 11 hours ago

TLE from 11 hours ago
0 COSMOS 2251 DEB
1 33936U 93036ER  26255.29755275  .00001858  00000-0  37643-3 0  9995
2 33936  74.0146 233.9177 0028937 313.8447  46.0327 14.61761707928853
Epoch: 2026-09-12T07:08Z
TLE epoch observation values (Epoch: 2026-09-12T07:08:28.557Z)
Latitude
-0.0001°
Longitude
135.49011°
Altitude
675.966 km
Speed
7.527 km/s
True Right ascension
15h 35m 40s
True Declination
0° 00' 00"
Sunlit
Object was in daylight at epoch
Visualization orbit readout
Latitude
Unknown
Longitude
Unknown
Altitude
Unknown
Speed
Unknown
Apparent Right ascension
Unknown
Apparent Declination
Unknown
Sunlit
N/A
Visualization observer readout
Local Sidereal Time
10:20:34
Azimuth
Unknown
Elevation
Unknown
Doppler factor
Unknown
Orbital elements
Apogee altitude
705.528 km
Perigee altitude
664.65 km
Semi-major axis
7,063.226 km
Eccentricity
0.00289
Inclination
74.0146°
RAAN
233.9177°
Arg. of periapsis
313.8447°
True anomaly
46.27196°
Mean anomaly
46.0327°
Eccentric anomaly
46.15227°
Mean motion
3.65627 °/min
Orbital period
98.46 mins
BSTAR
0.00037643

Documentation

Showing up to 5 results
|